#timestamp,LO_Frequency,Hit,StdDev 
1507986015.9,286046998.3,N
1507986035.7,286047000.5,N
1507986055.5,286047002.2,N
1507986075.3,286046999.3,N
1507986095.2,286046998.3,N
1507986115.0,286046999.5,N
1507986115.9,286046999.5,N
1507986135.7,286046998.5,N
1507986155.6,286047000.7,N
1507986175.4,286046998.2,N
1507986195.2,286046999.0,N
1507986215.1,286046998.2,N
1507986216.0,286046998.2,N
1507986235.8,286047002.6,N
1507986255.6,286047002.6,N
1507986275.5,286047000.8,N
1507986295.3,286046996.8,N
1507986315.1,286046994.7,N
1507986335.9,286046993.6,N
1507986355.7,286046993.6,N
1507986375.5,286046993.7,N
1507986395.3,286046997.6,N
1507986415.2,286046993.6,N
1507986435.0,286046996.2,N
1507986435.9,286046996.2,N
1507986455.7,286046998.0,N
1507986475.6,286047000.8,N
1507986495.4,286046999.5,N
1507986515.2,286046993.8,N
1507986535.1,286046990.4,Y
1507986536.0,286046990.4,P
1507986555.8,286046995.2,N
1507986575.7,286046993.9,N
1507986595.5,286046994.0,N
1507986615.3,286046992.9,N
1507986635.2,286046992.6,Y
1507986655.9,286046999.1,P
1507986675.7,286047000.7,N
1507986695.5,286046998.1,N
1507986715.4,286047001.5,N
1507986735.2,286046998.4,N
1507986755.0,286047000.5,N
1507986755.9,286047000.5,N
1507986775.8,286047001.0,N
1507986795.6,286046999.1,N
1507986815.4,286046998.2,N
1507986835.3,286046998.7,N
1507986855.1,286047001.6,N
1507986856.0,286047001.6,N
1507986875.8,286047002.7,N
1507986895.7,286047002.4,N
1507986915.5,286046999.8,N
1507986935.3,286047001.4,N
1507986955.2,286047004.4,N
1507986975.9,286047001.8,N
1507986995.7,286047002.2,N
1507987015.5,286047002.8,N
1507987035.4,286047000.1,N
1507987055.2,286047004.8,N
1507987075.0,286047007.2,Y
1507987076.0,286047007.2,P
1507987095.8,286047005.9,N
1507987115.6,286047001.2,N
1507987135.4,286047001.9,N
1507987155.3,286047003.9,N
1507987175.1,286047003.5,N
1507987195.8,286047004.6,N
1507987215.7,286047002.6,N
1507987235.5,286046999.1,N
1507987255.3,286046999.1,N
1507987275.2,286047000.0,N
1507987295.9,286047001.1,N
1507987315.7,286046997.1,N
1507987335.6,286046999.3,N
1507987355.4,286046996.7,N
1507987375.2,286046999.4,N
1507987395.0,286046997.8,N
1507987395.9,286046997.8,N
1507987415.8,286046994.9,N
1507987435.6,286046999.2,N
1507987455.4,286046998.8,N
1507987475.3,286047000.0,N
1507987495.1,286047001.0,N
1507987515.8,286046996.5,N
1507987535.7,286046998.5,N
1507987555.5,286046992.2,N
1507987575.3,286046996.9,N
1507987595.2,286046997.5,N
1507987615.9,286046998.2,N
1507987635.7,286046999.2,N
1507987655.6,286046997.8,N
1507987675.4,286046999.0,N
1507987695.2,286046998.1,N
1507987715.0,286047002.4,N
1507987716.0,286047002.4,N
1507987735.8,286047001.4,N
1507987755.6,286047000.8,N
1507987775.4,286046994.9,N
1507987795.3,286046994.9,N
1507987815.1,286046995.9,N
1507987835.8,286046993.5,N
1507987855.7,286046994.2,N
1507987875.5,286046990.4,Y
1507987895.3,286046995.8,P
1507987915.2,286046994.3,P
1507987935.0,286046992.9,P
1507987935.9,286046992.9,Y
1507987955.7,286046996.2,P
1507987975.6,286046992.3,P
1507987995.4,286046994.1,P
1507988015.2,286046994.3,Y
1507988035.1,286047002.4,P
1507988036.0,286047002.4,N
1507988055.8,286047000.9,N
1507988075.6,286047003.5,N
1507988095.5,286047009.1,N
1507988115.3,286047010.6,N
1507988135.1,286047010.4,N
1507988155.9,286047010.2,N
1507988175.7,286047011.9,N
1507988195.5,286047013.1,N
1507988215.4,286047008.9,N
1507988235.2,286047007.9,N
1507988255.0,286047006.9,N
1507988255.9,286047006.9,N
1507988275.8,286047005.5,N
1507988295.6,286047008.2,N
1507988315.4,286047010.3,N
1507988335.3,286047007.2,N
1507988355.1,286047007.2,N
1507988356.0,286047007.2,N
1507988375.8,286047003.3,N
1507988395.7,286047004.6,N
1507988415.5,286047008.6,N
1507988435.3,286047011.7,N
1507988455.1,286047009.5,N
1507988475.9,286047008.6,N
1507988495.7,286047005.8,N
1507988515.5,286047003.1,N
1507988535.4,286047001.8,N
1507988555.2,286047003.4,N
1507988575.0,286047003.7,N
1507988575.9,286047003.7,N
1507988595.8,286047001.3,N
1507988615.6,286047002.9,N
1507988635.4,286047010.7,Y
1507988655.3,286047001.6,P
1507988675.1,286046996.0,N
1507988676.0,286046996.0,N
1507988695.8,286046989.7,N
1507988715.7,286046984.5,N
1507988735.5,286046979.8,N
1507988755.3,286046974.6,N
1507988775.2,286046975.5,N
1507988795.9,286046975.0,N
1507988815.7,286046981.5,N
1507988835.6,286046986.7,N
1507988855.4,286046985.0,N
1507988875.2,286046981.9,N
1507988895.0,286046982.5,N
1507988895.9,286046982.5,N
1507988915.8,286046987.4,N
1507988935.6,286046989.0,N
1507988955.4,286046993.4,N
1507988975.3,286046995.7,N
1507988995.1,286046996.3,N
1507988996.0,286046996.3,N
1507989015.8,286046995.1,N
1507989035.7,286046995.0,N
1507989055.5,286046999.1,N
1507989075.3,286046997.0,N
1507989095.2,286046998.0,N
1507989115.9,286046993.3,N
1507989135.7,286046993.9,N
1507989155.5,286046995.5,N
1507989175.4,286046998.3,N
1507989195.2,286046994.9,N
1507989215.0,286046997.9,N
1507989215.9,286046997.9,N
1507989235.8,286046998.0,N
1507989255.6,286046998.0,N
1507989275.4,286046998.3,N
1507989295.3,286046995.0,N
1507989315.1,286046996.1,N
1507989335.8,286046992.6,N
1507989355.7,286046991.2,N
1507989375.5,286046995.2,N
1507989395.3,286046998.0,N
1507989415.2,286046988.9,N
1507989435.9,286046987.7,N
1507989455.7,286046990.0,N
1507989475.6,286046990.4,N
1507989495.4,286046994.0,N
1507989515.2,286046992.5,N
1507989535.1,286046995.9,N
1507989536.0,286046995.9,N
1507989555.8,286046998.0,N
1507989575.6,286046993.5,N
1507989595.5,286046995.1,N
